Timestamp,Temp,Chill,HIndex,Humid,Dewpt,Wind,HiWind,WindDir,Rain,RainRate,Barom,Solar,ET,UV,InsideTemp,InsideHumid
2019-02-19 00:00:00,45.4073825503355,43.1475161344797,45.4073825503355,88,42.0642695130832,4.95973154362416,11,218.074860641207,0,0,29.5420134228188,0,0.000149115778154641,0,73.7999999999999,33
2019-02-19 00:05:00,45.4173333333333,43.1130248261869,45.4173333333333,87.8266666666667,42.0226924192393,5.08,10,219.468935441315,0,0,29.5411933333334,0,0.000144309746480492,0,73.7999999999999,33
2019-02-19 00:10:00,45.4765100671141,44.1829443903874,45.4765100671141,87.8322147651007,42.0825979431975,3.87248322147651,10,215.912436343372,0,0,29.5433825503356,0,0.000144022770558731,0,73.7999999999999,33
2019-02-19 00:15:00,45.5,44.0840930395163,45.5,88,42.1554887757918,3.91275167785235,10,224.505607472982,0,0,29.5446040268456,0,0.000143740401440645,0,73.7999999999999,33
2019-02-19 00:20:00,45.5093959731544,42.2311740424569,45.5093959731544,88,42.1647428721157,6.65771812080537,14,226.02211205253,0,0,29.5463959731543,0,0.000143372615039416,0,73.7999999999999,33
2019-02-19 00:25:00,45.5731543624162,43.3857351511276,45.5731543624162,88,42.2275385257424,4.73825503355705,14,217.537617045078,0,0,29.5478053691274,0,0.000143482780173265,0,73.7999999999999,33
2019-02-19 00:30:00,45.5939597315437,43.9959505996898,45.5939597315437,88,42.2480297390312,4.20805369127517,9,220.835722084489,0,0,29.5456040268456,0,0.000143353207523405,0,73.7999999999999,33
2019-02-19 00:35:00,45.6000000000001,43.5870722263196,45.6000000000001,88,42.2539788009537,4.77181208053691,10,223.805366207351,0,0,29.5455973154362,0,0.000140626679113964,0,73.7999999999999,33
2019-02-19 00:40:00,45.6000000000001,43.2911409306326,45.6000000000001,88,42.2539788009537,5.06040268456376,10,230.577873976416,0,0,29.5473825503355,0,0.000140519628133732,0,73.7999999999999,33
2019-02-19 00:45:00,45.6483221476509,43.3069619780285,45.6483221476509,88,42.3015711329109,5.22147651006711,11,225.637666515136,0,0,29.5484161073825,0,0.000140558369743062,0,73.7999999999999,33
2019-02-19 00:50:00,45.7154362416107,43.9528731524009,45.7154362416107,88,42.3676715417582,4.35570469798658,11,217.464863969851,0,0,29.5489932885905,0,0.000140091047467169,0,73.7999999999999,33
2019-02-19 00:55:00,45.8000000000001,43.7188749616378,45.8000000000001,88,42.4509578366942,4.81208053691275,10,225.76868462368,0,0,29.55,0,0.000138601437959588,0,73.7999999999999,33
2019-02-19 01:00:00,45.8397350993377,44.4636236410168,45.8397350993377,88,42.4900925428857,3.81456953642384,10,216.767182315227,0,0,29.5525761589404,0,0.000138724673047858,0,73.7999999999999,33
2019-02-19 01:05:00,45.8999999999999,44.5165770573677,45.8999999999999,88,42.5494468472759,3.91946308724832,12,224.690327028382,0,0,29.5535906040268,0,0.000138739619700688,0,73.7999999999999,33
2019-02-19 01:10:00,45.958940397351,44.5431264858361,45.958940397351,88,42.607496462129,3.90066225165563,12,238.16436327092,0,0,29.5537947019868,0,0.000138460700164091,0,73.7999999999999,33
2019-02-19 01:15:00,46,43.6832865290084,46,88,42.6479355196673,5.31543624161074,12,222.408897499724,0,0,29.5530067114094,0,0.000138556883578161,0,73.7999999999999,33
2019-02-19 01:20:00,46.0807947019869,43.3002347984719,46.0807947019869,87.2119205298013,42.4931840567017,5.94701986754967,12,235.797793549825,0,0,29.5526026490066,0,0.000138587602554558,0,73.7999999999999,33
2019-02-19 01:25:00,46.1939597315435,44.3644435955243,46.1939597315435,87,42.5414941773502,4.58389261744966,12,256.409471111142,0,0,29.5535906040269,0,0.00014073691951747,0,73.7999999999999,33
2019-02-19 01:30:00,46.3000000000001,44.8874556240903,46.3000000000001,87,42.6457892030203,4.04026845637584,10,250.734336162823,0,0,29.5551946308725,0,0.000141468483776827,0,73.7999999999999,33
2019-02-19 01:35:00,46.3919463087247,44.7492879027455,46.3919463087247,86.4496644295302,42.5706944764004,4.36241610738255,12,243.43709524027,0,0,29.5558053691275,0,0.00014154171783644,0,73.7999999999999,33
2019-02-19 01:40:00,46.4174496644295,44.1837172088868,46.4174496644295,86,42.4605064108574,5.21476510067114,12,237.935828452693,0,0,29.5558120805369,0,0.000142985038359551,0,73.7999999999999,33
2019-02-19 01:45:00,46.4973154362416,43.5844719112387,46.4973154362416,85.6711409395973,42.4389729727758,6.50335570469799,19,244.194903872601,0,0,29.5571812080537,0,0.000144196621172736,0,73.7999999999999,33
2019-02-19 01:50:00,46.5395973154364,45.0364250851049,46.5395973154364,85,42.276414013157,4.31543624161074,19,233.865394886421,0,0,29.5568120805369,0,0.000145565426415438,0,73.7999999999999,33
2019-02-19 01:55:00,46.6000000000001,44.9871930145515,46.6000000000001,84.5503355704698,42.1974688692515,4.44295302013423,11,249.503476625079,0,0,29.5585973154362,0,0.000147259510616467,0,73.7999999999999,33
2019-02-19 02:00:00,46.6557046979865,44.0760393956101,46.6557046979865,84,42.0829010979932,5.66442953020134,11,244.034400574638,0,0,29.5587919463088,0,0.000148665325604317,0,73.7999999999999,33
2019-02-19 02:05:00,46.6999999999999,44.1935934351777,46.6999999999999,84,42.1262856770901,5.95973154362416,18,239.094450637169,0,0,29.55722147651,0,0.000150553146355964,0,73.7999999999999,33
2019-02-19 02:10:00,46.6999999999999,44.3723876638167,46.6999999999999,84,42.1262856770901,5.25503355704698,18,228.901217374967,0,0,29.5555973154363,0,0.000151088221536786,0,73.7999999999999,33
2019-02-19 02:15:00,46.6999999999999,43.8316856816014,46.6999999999999,84,42.1262856770901,6.44370860927152,15,238.931756429225,0,0,29.5553841059602,0,0.000153183469567565,0,73.7999999999999,33
2019-02-19 02:20:00,46.6999999999999,44.3407915533671,46.6999999999999,83.3443708609272,41.9225834512836,5.58278145695364,15,242.399945803485,0,0,29.5570066225165,0,0.000153994885430475,0,73.7999999999999,33
2019-02-19 02:25:00,46.6999999999999,43.5354788978957,46.6999999999999,83,41.8155883427792,6.86577181208054,15,231.294130943957,0,0,29.555,0,0.000156085159872652,0,73.7999999999999,33
2019-02-19 02:30:00,46.6999999999999,44.2323666732146,46.6999999999999,83,41.8155883427792,5.59060402684564,15,238.712454636887,0,0,29.5542013422819,0,0.000159257043225013,0,73.7999999999999,33
2019-02-19 02:35:00,46.6999999999999,44.756312487067,46.6999999999999,83,41.8155883427792,5.05369127516779,16,239.654305724989,0,0,29.5524161073825,0,0.000160807302850112,0,73.7999999999999,33
2019-02-19 02:40:00,46.6999999999999,44.3466515935715,46.6999999999999,83,41.8155883427792,5.67549668874172,16,235.449586314918,0,0,29.5520132450332,0,0.000161779067302807,0,73.7999999999999,33
2019-02-19 02:45:00,46.6999999999999,44.1407045494519,46.6999999999999,83,41.8155883427792,5.74496644295302,15,239.346804398646,0,0,29.5531812080537,0,0.000163426733980878,0,73.7999999999999,33
2019-02-19 02:50:00,46.6295302013424,43.8203084797426,46.6295302013424,83,41.7466652995112,6.25503355704698,13,237.571558788204,0,0,29.5545838926175,0,0.000165148428593894,0,73.7999999999999,33
2019-02-19 02:55:00,46.5818791946309,44.4578506119969,46.5818791946309,83,41.700060105666,4.98657718120805,13,240.980207171103,0,0,29.555,0,0.000167235450673997,0,73.7208053691274,33
2019-02-19 03:00:00,46.4885906040268,43.5769316673853,46.4885906040268,83,41.6088186138374,6.4496644295302,14,245.704237737882,0,0,29.5553959731544,0,0.000166951763151078,0,73.6791946308727,33
2019-02-19 03:05:00,46.4060402684563,42.5771993988757,46.4060402684563,83,41.528079386323,8.07382550335571,17,251.820229300259,0,0,29.5545973154363,0,0.000166932925983749,0,73.6000000000002,33
2019-02-19 03:10:00,46.3248322147652,43.0814329587304,46.3248322147652,83,41.4486526250853,7,20,253.780273197529,0,0,29.555610738255,0,0.000167599967014787,0,73.6000000000002,33
2019-02-19 03:15:00,46.3000000000001,42.689571068763,46.3000000000001,83.7266666666667,41.6497349054519,7.84666666666667,21,254.812442637482,0,0,29.5554,0,0.000169456547626032,0,73.6000000000002,33
2019-02-19 03:20:00,46.3000000000001,42.7337444305678,46.3000000000001,84,41.7345070363487,7.38926174496644,21,244.748158908126,0,0,29.5549932885906,0,0.000168975631588244,0,73.5,33
2019-02-19 03:25:00,46.3000000000001,43.1228179036345,46.3000000000001,84,41.7345070363487,6.8476821192053,16,246.077688527309,0,0,29.5553973509933,0,0.000168336007765002,0,73.5,33.8013245033113
2019-02-19 03:30:00,46.3000000000001,43.0790060260508,46.3000000000001,84,41.7345070363487,6.90604026845638,16,251.664894268151,0,0,29.5575838926175,0,0.000168673720386107,0,73.5,34
2019-02-19 03:35:00,46.2682119205298,43.0507720457779,46.2682119205298,84,41.7033719463982,7.00662251655629,15,257.793790944122,0,0,29.5591920529802,0,0.000169162105741094,0,73.5,34
2019-02-19 03:40:00,46.1999999999999,43.2199355033949,46.1999999999999,84,41.6365612325463,6.47651006711409,16,253.211034011797,0,0,29.5609932885906,0,0.000169448315295675,0,73.5,34
2019-02-19 03:45:00,46.1999999999999,43.9580137873312,46.1999999999999,84,41.6365612325463,5.22818791946309,16,261.110686975375,0,0,29.5636040268456,0,0.000169372769389789,0,73.5,34
2019-02-19 03:50:00,46.1859060402684,44.1520139502306,46.1859060402684,84,41.6227567259265,4.81879194630873,12,250.588498681851,0,0,29.5651812080537,0,0.000169018837613262,0,73.5,34
2019-02-19 03:55:00,46.1033557046981,43.794490910806,46.1033557046981,84,41.5419017585815,5.34228187919463,12,258.940996002317,0,0,29.5671879194631,0,0.000168769552040218,0,73.5,34
2019-02-19 04:00:00,46.1000000000001,43.4336057297958,46.1000000000001,84,41.538614971291,5.81879194630873,14,256.316582999783,0,0,29.568610738255,0,0.000168175732514392,0,73.5,34
2019-02-19 04:15:00,45.9318840579709,43.5309019083815,45.9318840579709,84,41.3739506108392,5.45652173913043,12,262.364640864619,0,0,29.5719927536231,0,0.000163886650950567,0,73.3,34
2019-02-19 04:20:00,45.8671140939598,43.7494204297243,45.8671140939598,83.4228187919463,41.1318678864339,4.88590604026846,12,271.022088672219,0,0,29.5728053691275,0,0.000162989197958537,0,73.2999999999999,34
2019-02-19 04:25:00,45.8000000000001,44.143824126049,45.8000000000001,82.9597315436242,40.922730954593,4.30872483221477,12,274.94193600273,0,0,29.5755838926175,0,0.000163829811073928,0,73.2999999999999,34
2019-02-19 04:30:00,45.8000000000001,43.0609443070434,45.8000000000001,82.6887417218543,40.8379779286846,5.93377483443709,12,262.896675916661,0,0,29.5773841059603,0,0.000163990355458488,0,73.2999999999999,34
2019-02-19 04:35:00,45.8456953642383,43.4807577622158,45.8456953642383,83.158940397351,41.0292251145344,5.39072847682119,13,258.210575242852,0,0,29.5783973509934,0,0.000164181415382506,0,73.2999999999999,34
2019-02-19 04:40:00,45.8999999999999,43.8409407788649,45.8999999999999,84,41.3427210764078,4.97350993377483,14,268.873891536038,0,0,29.581178807947,0,0.000163766296138359,0,73.2999999999999,34
2019-02-19 04:45:00,45.889932885906,43.5319544433304,45.889932885906,84.1073825503356,41.3657484887078,5.10738255033557,14,274.994334368676,0,0,29.5835906040269,0,0.000163642338393886,0,73.2999999999999,34
2019-02-19 04:50:00,45.823489932886,44.4012309298649,45.823489932886,85,41.5740307240089,3.84563758389262,10,272.940285006825,0,0,29.5863892617449,0,0.000163329841364269,0,73.2999999999999,34
2019-02-19 04:55:00,45.8033557046981,44.6838080684118,45.8033557046981,85,41.5542820797652,3.61744966442953,8,263.960376684033,0,0,29.5889932885906,0,0.000160508352948236,0,73.2999999999999,34
2019-02-19 05:00:00,45.8000000000001,44.3958807980334,45.8000000000001,85.2080536912752,41.6140428635973,4.02013422818792,9,289.027753370756,0,0,29.59,0,0.000159396457815008,0,73.2999999999999,34
2019-02-19 05:05:00,45.7791946308725,43.8671559887532,45.7791946308725,86,41.8336127997284,4.63758389261745,10,278.067862259503,0,0,29.5905973154362,0,0.000158617751343886,0,73.2999999999999,34
2019-02-19 05:10:00,45.7328859060402,43.0870748286662,45.7328859060402,86,41.7881277645409,5.59731543624161,11,287.811329034671,0,0,29.5902147651007,0,0.000156640691972383,0,73.3402684563759,34
2019-02-19 05:15:00,45.6999999999999,43.8326016086126,45.6999999999999,86.1275167785235,41.7940604275138,4.48993288590604,11,281.752076570509,0,0,29.5897919463087,0,0.000156554026864021,0,73.5,34
2019-02-19 05:20:00,45.6389261744968,43.6761561614212,45.6389261744968,87,41.9955889755757,4.5503355704698,9,282.926862574185,0,0,29.5912013422819,0,0.000156086652713904,0,73.5,34
2019-02-19 05:25:00,45.6000000000001,43.7864214551434,45.6000000000001,87,41.9573026192072,4.36241610738255,9,286.196889188378,0,0,29.5925906040268,0,0.000153968413738313,0,73.5,34
2019-02-19 05:30:00,45.5402684563758,44.4301066366147,45.5402684563758,87,41.8985526458467,3.45637583892617,9,269.66808746182,0,0,29.5949865771812,0,0.000152388587763576,0,73.5,34
2019-02-19 05:35:00,45.5,44.9636144705316,45.5,87,41.8589459222328,2.5364238410596,9,259.833078647015,0,0,29.5991655629139,0,0.000149862148086542,0,73.5,34
2019-02-19 05:40:00,45.4417218543045,45.0070217706855,45.4417218543045,87,41.801625248789,2.58940397350993,6,267.473019547029,0,0,29.6015827814569,0,0.00014897501191679,0,73.5,34
2019-02-19 05:45:00,45.4033557046979,44.7993964950014,45.4033557046979,87,41.7638894302131,2.66442953020134,7,253.199263983779,0,0,29.6033892617449,0,0.00014624160853793,0,73.5,34
2019-02-19 05:50:00,45.3999999999999,44.3849645722477,45.3999999999999,86.5302013422819,41.6199178122116,3.18120805369128,12,263.869177535183,0,0,29.6042013422818,0,0.000145900037708277,0,73.5,34
2019-02-19 05:55:00,45.3999999999999,44.4304602302029,45.3999999999999,86,41.4611604895891,3.21476510067114,12,262.120907452609,0,0,29.6048053691275,0,0.000145352153736969,0,73.5,34
2019-02-19 06:00:00,45.4033557046979,44.4896278173251,45.4033557046979,86,41.4644565466372,3.16778523489933,11,280.473323702628,0,0,29.6065906040269,0,0.000143485156354594,0,73.5,34
2019-02-19 06:05:00,45.4624161073825,43.4429866269857,45.4624161073825,86,41.522467150685,4.73825503355705,11,251.892956978379,0,0,29.607,0,0.000143133066547445,0,73.5,34
2019-02-19 06:10:00,45.4429530201341,43.0300870236186,45.4429530201341,86,41.5033500198057,5.45637583892617,17,262.147919547683,0.00787401574999991,0,29.6073825503356,0,0.000142916504990593,0,73.5,34
2019-02-19 06:15:00,45.3362416107383,42.6017630474931,45.3362416107383,86,41.3985351149629,5.7248322147651,17,275.070716705347,0,0,29.6095906040268,0,0.000143017374449795,0,73.5,34
2019-02-19 06:20:00,45.1416107382551,43.0663851848495,45.1416107382551,86,41.2073622085867,4.8255033557047,13,270.389554926907,0,0,29.6119865771812,0,0.000143097808588218,0,73.2999999999999,34
2019-02-19 06:25:00,44.9436241610738,42.0935893624687,44.9436241610738,85.3557046979866,40.8183933652806,5.99328859060403,15,271.257082780648,0,0,29.615,0,0.000142826177828652,0,73.2999999999999,34
2019-02-19 06:30:00,44.7328859060402,42.389594659936,44.7328859060402,85,40.504285822443,5.02684563758389,15,289.757051094805,0,0,29.6137852348993,0,0.00014435068599952,0,73.2194630872485,34
2019-02-19 06:35:00,44.5953020134229,42.6920037964532,44.5953020134229,85,40.3693298273086,4.44295302013423,11,278.44235901377,0,0,29.615,0,0.000145273550260126,0,73.1000000000002,34
2019-02-19 06:40:00,44.4794701986754,43.4439484076365,44.4794701986754,85,40.255709752564,3.33774834437086,10,278.470679409021,0,0,29.6140198675496,0,0.000145440487157713,0,73.1000000000002,34
2019-02-19 06:45:00,44.3543046357617,43.6101495192076,44.3543046357617,85,40.1329335104874,3.01986754966887,10,266.238315735585,0,0,29.6163576158941,0,0.000146457794938275,0,73.1000000000002,34
2019-02-19 06:50:00,44.2704697986577,43.7676897840454,44.2704697986577,85,40.0506986666336,2.59060402684564,9,287.907387529631,0,0,29.6162147651006,0,0.00014742525573649,0,73,34
2019-02-19 06:55:00,44.18322147651,44.1694952794132,44.18322147651,85.1744966442953,40.0176187506478,1.26845637583893,6,290.108799085956,0,0,29.6167986577182,0,0.00014716440651995,0,73,34
2019-02-19 07:00:00,44.1073825503357,43.5800025212879,44.1073825503357,85.6308724832215,40.0804582720311,2.48993288590604,7,289.808361853977,0,0,29.6175906040269,0,0.000146615899508402,0,73,34
2019-02-19 07:05:00,44.1033557046981,44.0896295076012,44.1033557046981,86,40.1875280558351,0.939597315436242,7,257.761846982534,0,0,29.6191946308725,0,0.000145964592907712,0,73,34
2019-02-19 07:10:00,44.1000000000001,43.5629212880427,44.1000000000001,86.9261744966443,40.4599370530734,1.30201342281879,7,235.62374852915,0,0,29.6223825503356,0,0.000144723199704167,0,73,34
2019-02-19 07:15:00,44.1369127516778,43.5508291176248,44.1369127516778,87,40.5182216202262,2.2751677852349,7,223.28880449024,0,0,29.625,3.32214765100671,0.000141632814390486,0,73,34
2019-02-19 07:20:00,44.2039999999999,43.6868754962503,44.2039999999999,87,40.5842098605609,2.62,9,224.183683933642,0,0,29.6259933333334,7.86666666666667,0.000140491234259192,0,73,34
2019-02-19 07:25:00,44.3226666666667,43.0712699242718,44.3226666666667,87,40.7009320633013,3.29333333333333,9,237.989190890831,0,0,29.6281866666666,10.8266666666667,0.000139062029946121,0,72.7999999999999,34
2019-02-19 07:30:00,44.4644295302014,44.3656346715743,44.4644295302014,86.6912751677852,40.7483038571665,1.89261744966443,8,250.424818027557,0,0,29.6285973154362,13.1677852348993,0.000137993152427445,0,72.7999999999999,34
2019-02-19 07:35:00,44.5073825503356,44.1650539217576,44.5073825503356,86,40.5843916958155,2.26174496644295,6,260.40144692255,0,0,29.6293892617449,16.241610738255,0.000136615544269112,0,72.7999999999999,34
2019-02-19 07:40:00,44.6000000000001,44.1316983646166,44.6000000000001,86,40.6753661829289,2.41610738255034,6,257.190228975382,0,0,29.6315838926174,20.7181208053691,0.000135675948390877,0,72.7999999999999,34
2019-02-19 07:45:00,44.6806666666665,43.6724445954678,44.6806666666665,86,40.7546015641929,3.34,10,240.251358117574,0,0,29.63538,27.6933333333333,0.000134754258498233,0,72.96,34
2019-02-19 07:50:00,44.7774834437087,43.8002176855762,44.7774834437087,85.6225165562914,40.7358136879438,3.02649006622517,10,237.447675169363,0,0,29.6361986754967,33.2450331125828,0.000133682097981515,0,73,34
2019-02-19 07:55:00,44.876510067114,44.3922715966427,44.876510067114,85.1744966442953,40.6978351207716,2.67114093959732,9,240.218193686349,0,0,29.6363959731544,39.0805369127517,0.000132311198747345,0,73,34
2019-02-19 08:00:00,44.9456375838927,44.4330001175571,44.9456375838927,85,40.7129723607997,2.51677852348993,8,279.411118536644,0,0,29.6379932885906,50.758389261745,0.000131542089619954,0,73,34
2019-02-19 08:05:00,45.0577181208055,43.9395013434858,45.0577181208055,85.1677852348993,40.873599548057,3.57046979865772,10,248.987782473655,0,0,29.641187919463,59,0.000130325418551033,0,73,34
2019-02-19 08:10:00,45.1758389261744,44.2908220687967,45.1758389261744,85,40.9387729711434,3.15436241610738,10,252.018347043134,0,0,29.6444026845638,60.6577181208054,0.000128911313711487,0.00335570469798658,73,34
2019-02-19 08:15:00,45.3597315436241,44.8945251067416,45.3597315436241,85,41.1191484818788,2.40939597315436,9,249.86980599112,0,0,29.6459932885906,76.8187919463087,0.000127185512086966,0.0805369127516778,73,34
2019-02-19 08:20:00,45.5362416107384,44.5101665415114,45.5362416107384,85,41.2922813001806,3.22818791946309,12,229.903547120721,0,0,29.6449999999999,54.758389261745,0.000124775948563142,0,73,34
2019-02-19 08:25:00,45.6673333333332,44.9731058243282,45.6673333333332,84.28,41.2004927784087,2.93333333333333,12,231.382081143764,0,0,29.6458,67.4866666666667,0.000123867605313808,0.133333333333333,73.0400000000001,34
2019-02-19 08:30:00,45.8234899328859,44.6607291084254,45.8234899328859,84,41.2677812731074,3.52348993288591,10,233.424671348686,0,0,29.6479798657718,114.765100671141,0.000124455780609573,0.204697986577181,73.1000000000002,34
2019-02-19 08:35:00,46.0020134228189,45.0061413820612,46.0020134228189,84,41.4426401960052,3.29530201342282,9,242.425914374621,0,0,29.6505906040269,127.785234899329,0.000121875175881394,0.0268456375838926,73.1000000000002,34
2019-02-19 08:40:00,46.2812080536913,44.7527158646254,46.2812080536913,84,41.7161009845408,4.14093959731544,10,239.193777558529,0,0,29.6524026845638,76.0469798657718,0.000118413260416722,0.0570469798657718,73.1000000000002,34
2019-02-19 08:45:00,46.465100671141,44.4694098977682,46.465100671141,83.3758389261745,41.7024652093984,4.87248322147651,11,234.991874305299,0,0,29.6525838926175,53.5436241610738,0.000117992123644981,0.122147651006711,73.1000000000002,34
2019-02-19 08:50:00,46.5416107382552,45.3310743809356,46.5416107382552,82.744966442953,41.5806286272204,3.77181208053691,11,234.60726432341,0,0,29.6545906040269,70.6308724832215,0.000120267489545419,0.193288590604027,73.1000000000002,34
2019-02-19 08:55:00,46.6556291390727,45.9170785045014,46.6556291390727,82.682119205298,41.6724092316383,2.74834437086093,10,236.286834674609,0,0,29.6552052980133,108.185430463576,0.000120895060114076,0.174834437086093,73.2999999999999,34.205298013245
2019-02-19 09:00:00,46.6999999999999,44.6267166736677,46.6999999999999,82,41.5015734166461,5.18543046357616,13,238.573276041349,0,0,29.6549933774835,105.072847682119,0.000119172856103909,0.445695364238411,73.2999999999999,34
2019-02-19 09:05:00,46.7337748344371,45.2885213641445,46.7337748344371,82,41.5345593673646,4.03973509933775,13,229.148841011482,0,0,29.656582781457,89.0331125827815,0.00011996487247432,0.460264900662253,73.5,34
2019-02-19 09:10:00,46.791946308725,45.0865444277874,46.791946308725,82,41.5913721220695,4.53691275167785,11,229.96218650082,0,0,29.6585838926174,175.677852348993,0.000119735070079372,0.59261744966443,73.5,34
2019-02-19 09:15:00,46.8000000000001,44.6901706808029,46.8000000000001,81.7046979865772,41.5054642208628,5.4496644295302,14,233.937930250064,0,0,29.66,284.41610738255,0.000117628069478217,0.616778523489931,73.5,34
2019-02-19 09:20:00,46.9275167785235,45.2359034949337,46.9275167785235,81,41.4060432206587,4.57718120805369,14,252.823283063644,0,0,29.6621879194631,332.604026845638,0.000112087387347767,0.703355704697987,73.2999999999999,34.2013422818792
2019-02-19 09:25:00,47.2369127516779,45.3856754647594,47.2369127516779,80.4093959731544,41.5177622192665,4.77181208053691,13,242.366868043622,0,0,29.6645704697987,123.248322147651,0.000105036835041375,0.616778523489933,73.0395973154362,34.2013422818792
2019-02-19 09:30:00,47.3000000000001,45.9082345775817,47.3000000000001,79.0335570469799,41.1329601362178,4.09395973154362,12,236.999293117811,0,0,29.6667919463087,78.9798657718121,0.000107455397983208,0.691946308724833,72.8389261744966,34.7986577181208
2019-02-19 09:35:00,47.2255033557046,45.6540482737012,47.2255033557046,78,40.7209547383718,4.42953020134228,12,252.916504163474,0,0,29.6690201342282,166.161073825503,0.000112778929046747,0.697986577181209,72.5194630872482,34
2019-02-19 09:40:00,47.1999999999999,46.2402432493006,47.1999999999999,78,40.6961947114005,3.47651006711409,10,284.842625160816,0,0,29.6699865771812,202.422818791946,0.000112335804420447,0.750335570469799,72.2194630872485,34.5973154362416
2019-02-19 09:45:00,47.3067114093961,45.4816753773578,47.3067114093961,77.3355704697987,40.5787292448901,4.70469798657718,10,261.923995886257,0,0,29.6708053691275,141.328859060403,0.000105887330599341,0.83489932885906,72.0597315436242,34.5973154362416
2019-02-19 09:50:00,47.4214765100671,45.2408856500444,47.4214765100671,77,40.5783354351994,5.32214765100671,12,246.635093708739,0,0,29.669610738255,188.355704697987,0.000105210275278386,0.962416107382548,71.8999999999998,34.7986577181208
2019-02-19 09:55:00,47.5600000000001,45.7626294720633,47.5600000000001,77,40.7126143904595,4.71333333333333,12,228.932556548499,0,0,29.67018,203.42,0.0001065051065919,1.01466666666667,71.8999999999998,34.8
2019-02-19 10:00:00,47.7072847682119,45.8022078121164,47.7072847682119,76.7615894039735,40.7749894011584,4.89403973509934,11,235.299597468913,0,0,29.6719867549668,175.509933774834,0.000102214328024722,0.900000000000001,71.8999999999998,35